Station HLNM4 - 9087031 - Holland, MI Image indicating link to RSS feed of recent meteorological observations for station HLNM4


Conditions at HLNM4 as of
(5:18 am EDT)
0918 GMT on 04/16/2024:
     

Click on the graph icon in the table below to see a time series plot of the last five days of that observation.

5-day plot - Wind Direction Wind Direction (WDIR): E ( 80 deg true )
5-day plot - Wind Speed Wind Speed (WSPD): 9.9 kts
5-day plot - Wind Gust Wind Gust (GST): 14.0 kts
5-day plot - Atmospheric Pressure Atmospheric Pressure (PRES):30.04 in
5-day plot - Air Temperature Air Temperature (ATMP): 50.9 °F
5-day plot - Water Temperature Water Temperature (WTMP): 47.3 °F
5-day plot - Dew Point Dew Point (DEWP): 26.6 °F
5-day plot - Wind Chill Wind Chill (CHILL): 46.8 °F
5-day plot - Wind Speed at 10 Meters Wind Speed at 10 meters (WSPD10M): 9.7 kts
5-day plot - Wind Speed at 20 Meters Wind Speed at 20 meters (WSPD20M): 11.7 kts
5-day plot -  Wind Speed, Wind Gust and Atmospheric Pressure Combined plot of Wind Speed, Gust, and Air Pressure
NOS Water Level Observation Network Water Level
Previous observations
TIME
(EDT)
5-day plot - Wind Direction
WDIR
 
5-day plot - Wind Speed
WSPD
kts
5-day plot - Wind Gust
GST
kts
5-day plot - Wave Height
WVHT
ft
5-day plot - Dominant Wave Period
DPD
sec
5-day plot - Average Wave Period
APD
sec
5-day plot - Mean Wave Direction
MWD
 
5-day plot - Atmospheric Pressure
PRES
in
5-day plot - Pressure Tendency
PTDY
in
5-day plot - Air Temperature
ATMP
°F
5-day plot - Water Temperature
WTMP
°F
5-day plot - Dew Point
DEWP
°F
5-day plot - Salinity
SAL
psu
5-day plot - Visibility
VIS
nmi
5-day plot - Tide (above MLLW)
TIDE
ft
2024-04-16 05:12 am E 11.1 15.0----30.04- 51.3 47.5 25.9---
2024-04-16 05:06 am E 11.1 15.0----30.04- 51.6 47.8 25.9---
2024-04-16 05:00 am E 12.0 14.0----30.04-0.01 51.8 48.2 25.7---
2024-04-16 04:54 amENE 9.9 15.0----30.04- 52.0 48.7 26.1---
2024-04-16 04:48 amENE 11.1 15.0----30.05- 52.3 49.1 26.2---
2024-04-16 04:42 amENE 11.1 15.0----30.04- 52.3 49.5 24.3---
2024-04-16 04:36 amENE 9.9 17.1----30.04- 52.5 49.8 23.9---
2024-04-16 04:30 amENE 12.0 15.9----30.04- 52.5 50.0 23.7---
2024-04-16 04:24 amENE 9.9 15.0----30.04- 52.7 50.0 23.0---
2024-04-16 04:18 am E 11.1 14.0----30.04- 52.9 50.0 22.8---
2024-04-16 04:12 am E 11.1 13.0----30.04- 53.1 50.4 23.2---
2024-04-16 04:06 am E 11.1 15.0----30.04- 53.1 50.9 23.7---
2024-04-16 04:00 am E 8.9 14.0----30.04+0.00 53.1 51.1 22.6---
2024-04-16 03:54 am E 8.9 14.0----30.04- 53.2 50.9 23.9---
2024-04-16 03:48 amENE 9.9 15.9----30.04- 53.4 51.1 20.7---
2024-04-16 03:42 amENE 9.9 15.0----30.04- 53.4 51.1 24.6---
2024-04-16 03:36 amENE 11.1 14.0----30.04- 53.8 51.3 25.0---
2024-04-16 03:30 amENE 12.0 14.0----30.04- 54.0 51.3 24.6---
2024-04-16 03:24 amENE 11.1 15.0----30.05- 54.0 51.3 24.6---
2024-04-16 03:18 amENE 8.9 13.0----30.05- 54.0 51.3 25.2---
2024-04-16 03:12 amENE 8.9 13.0----30.05- 54.0 51.1 24.4---
2024-04-16 03:06 amENE 8.0 12.0----30.05- 53.8 51.1 25.7---
2024-04-16 03:00 amENE 8.9 11.1----30.05+0.01 54.0 51.1 27.0---
2024-04-16 02:54 amENE 8.9 13.0----30.06- 53.8 51.1 27.3---
2024-04-16 02:48 amENE 7.0 9.9----30.06- 53.6 51.1 27.7---
2024-04-16 02:42 amENE 7.0 9.9----30.06- 53.8 50.9 27.3---
2024-04-16 02:36 amENE 6.0 9.9----30.06- 54.0 50.9 25.9---
2024-04-16 02:30 amENE 8.0 11.1----30.06- 54.3 50.7 24.3---
2024-04-16 02:24 am NE 7.0 8.9----30.06- 54.0 50.7 23.9---
2024-04-16 02:18 amENE 6.0 8.0----30.06- 54.0 50.7 24.1---
2024-04-16 02:12 amENE 7.0 11.1----30.06- 53.8 50.7 23.5---
2024-04-16 02:06 am NE 7.0 9.9----30.06- 53.8 50.7 23.0---
2024-04-16 02:00 amENE 7.0 11.1----30.06+0.02 54.0 50.7 22.5---
2024-04-16 01:54 am NE 8.0 9.9----30.05- 54.0 50.9 22.6---
2024-04-16 01:48 amENE 7.0 9.9----30.05- 53.8 50.9 23.4---
2024-04-16 01:42 amENE 7.0 9.9----30.05- 53.4 50.9 25.2---
2024-04-16 01:36 amENE 6.0 8.0----30.05- 52.9 50.9 27.7---
2024-04-16 01:30 amENE 7.0 8.9----30.05- 52.7 51.1 31.3---
2024-04-16 01:24 amENE 6.0 8.0----30.04- 52.2 51.1 31.8---
2024-04-16 01:18 amENE 7.0 8.0----30.04- 52.7 51.1 28.0---
2024-04-16 01:12 am NE 6.0 8.0----30.04- 52.7 51.3 28.6---
2024-04-16 01:06 amENE 6.0 8.0----30.04- 51.8 51.3 30.6---
2024-04-16 01:00 amENE 6.0 7.0----30.04+0.01 51.6 51.3 31.5---
2024-04-16 12:54 amENE 6.0 7.0----30.04- 51.4 51.3 31.6---
2024-04-16 12:48 amENE 6.0 7.0----30.04- 50.0 51.3 36.5---
2024-04-16 12:42 amENE 6.0 7.0----30.04- 50.0 51.1 36.3---
2024-04-16 12:36 amENE 6.0 8.0----30.04- 50.5 51.1 34.3---
2024-04-16 12:30 am NE 7.0 8.9----30.04- 53.1 51.1 29.5---
2024-04-16 12:24 am NE 6.0 8.0----30.04- 51.6 51.1 32.7---
2024-04-16 12:18 amENE 5.1 7.0----30.04- 50.5 50.9 35.1---
2024-04-16 12:12 am NE 5.1 6.0----30.04- 50.9 50.9 33.4---
2024-04-16 12:06 am NE 5.1 6.0----30.04- 52.3 50.7 28.6---
2024-04-16 12:00 amNNE 5.1 7.0----30.04+0.04 54.1 50.5 27.0---
2024-04-15 11:54 pm NE 4.1 6.0----30.04- 52.3 50.2 32.5---
2024-04-15 11:48 pmENE 4.1 5.1----30.05- 52.0 50.2 35.1---
2024-04-15 11:42 pmENE 2.9 4.1----30.05- 50.0 50.0 35.4---
2024-04-15 11:36 pm E 2.9 4.1----30.05- 49.8 49.6 35.4---
2024-04-15 11:30 pm- 0.0 1.9----30.04- 50.9 49.5 32.5---
2024-04-15 11:24 pmNNE 1.0 2.9----30.04- 50.7 49.5 34.9---
2024-04-15 11:18 pm E 1.9 2.9----30.04- 50.4 49.5 36.0---
2024-04-15 11:12 pm E 1.0 2.9----30.04- 50.4 49.5 36.9---
2024-04-15 11:06 pmNNE 2.9 5.1----30.03- 51.3 49.5----
2024-04-15 11:00 pm N 4.1 5.1----30.03+0.04 50.2 49.5 44.4---
2024-04-15 10:54 pm N 4.1 4.1----30.03- 49.8 49.5 43.9---
2024-04-15 10:48 pmNNW 2.9 2.9----30.03- 50.2 49.6 42.6---
2024-04-15 10:42 pmNNW 2.9 4.1----30.03- 50.2 49.8 43.9---
2024-04-15 10:36 pmNNW 2.9 4.1----30.03- 50.4 50.0 42.4---
2024-04-15 10:30 pmNNW 4.1 4.1----30.03-- 50.4----
2024-04-15 10:24 pm N 5.1 5.1----30.03-- 50.7----
2024-04-15 10:18 pmNNW 4.1 5.1----30.03- 50.9 51.3 40.5---
2024-04-15 10:12 pmNNW 5.1 5.1----30.03- 50.9 51.4 40.8---
2024-04-15 10:06 pmNNW 5.1 5.1----30.03- 51.1 51.3 41.4---
2024-04-15 10:00 pmNNW 5.1 6.0----30.03+0.04 51.1 51.1 41.2---
2024-04-15 09:54 pmNNW 5.1 5.1----30.03- 51.1 50.9 41.5---
2024-04-15 09:48 pmNNW 4.1 5.1----30.02- 50.5 50.5 43.3---
2024-04-15 09:42 pm NW 4.1 4.1----30.02- 50.5 49.8 43.7---
2024-04-15 09:36 pm NW 2.9 4.1----30.02- 50.5 48.7 42.4---
2024-04-15 09:30 pmWNW 2.9 2.9----30.02- 51.1 48.0 40.5---
2024-04-15 09:24 pmWNW 2.9 4.1----30.01- 51.4 47.8 39.7---
2024-04-15 09:18 pm NW 2.9 4.1----30.01- 51.3 47.7 40.1---
2024-04-15 09:12 pmNNW 2.9 4.1----30.01- 51.4 47.7 40.1---
2024-04-15 09:06 pm N 2.9 4.1----30.01- 52.2 47.8 37.8---
2024-04-15 09:00 pm NW 2.9 4.1----30.01+0.02- 48.0----
2024-04-15 08:54 pmNNW 2.9 4.1----30.00-- 48.4----
2024-04-15 08:48 pm N 2.9 4.1----30.00- 52.0 48.9 38.1---
2024-04-15 08:42 pmNNW 4.1 4.1----30.00- 53.4 49.3 34.5---
2024-04-15 08:36 pmNNW 4.1 4.1----30.00- 53.8 49.5 32.7---
2024-04-15 08:30 pmNNW 4.1 5.1----30.00- 54.3 49.5 31.8---
2024-04-15 08:24 pm N 5.1 5.1----29.99- 52.5 49.5 37.4---
2024-04-15 08:18 pm N 5.1 6.0----29.99-- 49.6----
2024-04-15 08:12 pm N 6.0 7.0----29.99-- 49.8----
2024-04-15 08:06 pm N 7.0 7.0----29.99-- 50.2----
2024-04-15 08:00 pmNNW 6.0 7.0----29.99+0.00 53.4 50.4 36.0---
2024-04-15 07:54 pm N 7.0 8.0----29.99- 53.2 50.4 36.0---
2024-04-15 07:48 pm N 8.0 8.0----29.99- 53.6 50.5 35.1---
2024-04-15 07:42 pm N 8.0 8.9----29.99- 54.3 50.7 32.4---
2024-04-15 07:36 pm N 8.9 8.9----29.99- 55.4 50.7 27.9---
2024-04-15 07:30 pm N 8.9 9.9----29.98- 55.2 50.5 28.9---
2024-04-15 07:24 pm N 9.9 9.9----29.98- 54.0 49.8 32.9---
2024-04-15 07:18 pm N 8.9 9.9----29.99- 53.4 49.1 35.1---
2024-04-15 07:12 pm N 8.0 8.9----29.99- 53.1 48.6 36.3---
2024-04-15 07:06 pm N 8.0 8.0----29.99- 53.2 48.6 36.1---
2024-04-15 07:00 pm N 8.0 8.9----29.99+0.00 53.4 48.7 35.4---
2024-04-15 06:54 pm N 8.0 8.9----29.99- 53.4 48.6 35.1---
2024-04-15 06:48 pm N 8.0 8.9----29.99- 53.8 48.4 35.1---
2024-04-15 06:42 pm N 8.0 8.0----29.99- 53.8 48.2 36.0---
2024-04-15 06:36 pm N 8.0 8.0----29.99- 53.8 48.4 34.9---
2024-04-15 06:30 pm N 7.0 7.0----29.99-- 48.6----
2024-04-15 06:24 pm N 7.0 7.0----29.99-- 49.3----
2024-04-15 06:18 pmNNW 7.0 7.0----29.99- 53.2 50.0 37.6---
2024-04-15 06:12 pm N 7.0 7.0----29.99- 53.1 50.9 38.7---
2024-04-15 06:06 pmNNW 6.0 7.0----29.99- 52.5 51.1 38.7---
2024-04-15 06:00 pmNNW 6.0 6.0----29.99+0.01 52.7 51.1 37.6---
2024-04-15 05:54 pmNNW 5.1 6.0----29.99- 52.9 50.9 37.0---
2024-04-15 05:48 pmNNW 5.1 6.0----29.99- 53.2 50.9 36.9---
2024-04-15 05:42 pmNNW 5.1 6.0----29.98- 52.9 50.9 37.0---
2024-04-15 05:36 pmNNW 5.1 6.0----29.98- 53.1 50.9 36.3---
2024-04-15 05:30 pmNNW 5.1 5.1----29.98- 52.7 51.1 34.9---
2024-04-15 05:24 pmNNW 5.1 5.1----29.98- 52.7 51.1 36.7---
2024-04-15 05:18 pmNNW 5.1 5.1------ 52.5 50.9 35.2---
2024-04-15 05:12 pmNNW 5.1 5.1------ 52.3 50.9 36.5---
2024-04-15 05:06 pmNNW 4.1 5.1------ 52.5 50.7 36.3---
2024-04-15 05:00 pmNNW 4.1 5.1----29.98+0.01 52.2 50.7 35.1---
2024-04-15 04:54 pmNNW 2.9 4.1----29.99- 52.0 50.7 36.1---
2024-04-15 04:48 pmNNW 2.9 4.1----29.99- 52.0 50.5 36.3---
2024-04-15 04:42 pmNNW 2.9 5.1----29.98- 51.4 50.5 38.1---
2024-04-15 04:36 pm NW 5.1 6.0----29.99- 51.4 50.5 38.3---
2024-04-15 04:30 pmNNW 6.0 6.0----29.99- 51.1 50.5 37.9---
2024-04-15 04:24 pmNNW 5.1 5.1----29.98- 50.7 50.5 37.4---
2024-04-15 04:18 pmNNW 5.1 6.0----29.98- 50.9 50.5 38.1---
2024-04-15 04:12 pmNNW 5.1 7.0----29.98- 50.7 50.5 37.9---
2024-04-15 04:06 pmNNW 6.0 7.0----29.99- 50.7 50.5 38.5---
2024-04-15 04:00 pmNNW 7.0 8.0----29.99+0.02 50.5 50.5 36.5---
2024-04-15 03:54 pmNNW 7.0 7.0----29.99- 50.7 50.5 38.8---
2024-04-15 03:48 pmNNW 7.0 8.0----29.99- 50.4 50.5 36.5---
2024-04-15 03:42 pmNNW 7.0 8.0----29.99- 50.2 50.5 40.6---
2024-04-15 03:36 pmNNW 7.0 8.0----29.98- 50.5 50.5 39.4---
2024-04-15 03:30 pmNNW 8.0 8.9----29.98- 50.2 50.7 38.1---
2024-04-15 03:24 pmNNW 7.0 8.9----29.98- 50.4 50.7 39.9---
2024-04-15 03:18 pmNNW 8.0 8.9----29.98- 50.0 50.5 40.1---
2024-04-15 03:12 pmNNW 8.0 9.9----29.98- 49.8 50.5 39.7---
2024-04-15 03:06 pmNNW 8.9 8.9----29.98- 50.0 50.5 38.8---
2024-04-15 03:00 pmNNW 8.0 8.9----29.98+0.01 50.0 50.4 40.1---
2024-04-15 02:54 pmNNW 7.0 8.0----29.98- 49.6 49.8 40.6---
2024-04-15 02:48 pmNNW 7.0 8.9----29.98- 49.8 49.6 38.8---
2024-04-15 02:42 pmNNW 7.0 8.0----29.98- 49.6 49.5 39.7---
2024-04-15 02:36 pmNNW 7.0 8.0----29.97- 49.6 49.5 39.7---
2024-04-15 02:30 pmNNW 7.0 8.9----29.97- 49.5 49.5 39.6---
2024-04-15 02:24 pmNNW 8.0 8.9----29.97- 49.5 49.5 38.5---
2024-04-15 02:18 pmNNW 8.9 9.9----29.97- 49.6 49.5 38.1---
2024-04-15 02:12 pmNNW 8.0 8.9----29.97- 49.8 49.5 39.4---
2024-04-15 02:06 pmNNW 8.9 9.9----29.97- 49.6 49.3 38.1---
2024-04-15 02:00 pmNNW 8.9 9.9----29.97+0.03 49.5 49.3 39.0---
2024-04-15 01:54 pmNNW 8.0 8.9----29.97- 49.3 49.3 40.5---
2024-04-15 01:48 pmNNW 8.9 9.9----29.97- 49.1 49.3 39.6---
2024-04-15 01:42 pmNNW 9.9 11.1----29.97- 49.1 49.3 40.1---
2024-04-15 01:36 pmNNW 9.9 11.1----29.97- 48.9 49.5 40.5---
2024-04-15 01:30 pmNNW 9.9 12.0----29.97- 48.9 49.8 41.0---
2024-04-15 01:24 pmNNW 11.1 12.0----29.97- 48.7 50.4 39.9---
2024-04-15 01:18 pmNNW 9.9 12.0----29.97- 48.6 50.5 40.5---
2024-04-15 01:12 pmNNW 11.1 12.0----29.97- 48.2 50.5 40.8---
2024-04-15 01:06 pmNNW 11.1 12.0----29.97- 48.0 50.4 39.9---
2024-04-15 01:00 pmNNW 11.1 12.0----29.97+0.04 48.0 50.2 40.8---
2024-04-15 12:54 pmNNW 11.1 11.1----29.97- 47.8 49.6 40.3---
2024-04-15 12:48 pmNNW 11.1 12.0----29.97- 47.7 49.1 39.9---
2024-04-15 12:42 pmNNW 11.1 12.0----29.97- 47.7 48.0 39.6---
2024-04-15 12:36 pmNNW 9.9 11.1----29.97- 47.8 47.5 40.8---
2024-04-15 12:30 pmNNW 11.1 11.1----29.96- 47.8 47.3 40.6---
2024-04-15 12:24 pmNNW 9.9 11.1----29.96- 48.0 47.3 40.3---
2024-04-15 12:18 pmNNW 9.9 11.1----29.96- 48.0 47.1 40.3---
2024-04-15 12:12 pmNNW 9.9 11.1----29.96- 48.2 47.5 40.1---
2024-04-15 12:06 pmNNW 9.9 11.1----29.96- 48.4 47.7 40.6---
2024-04-15 12:00 pmNNW 8.9 9.9----29.96+0.04 48.4 47.8 39.7---
2024-04-15 11:54 am NW 8.0 8.9----29.96- 48.6 48.0 39.4---
2024-04-15 11:48 am NW 7.0 8.9----29.96- 49.5 48.2 38.7---
2024-04-15 11:42 am NW 7.0 8.0----29.96- 49.6 48.4 38.3---
2024-04-15 11:36 am NW 5.1 7.0----29.95- 50.2 48.7 36.5---
2024-04-15 11:30 am NW 5.1 5.1----29.95- 50.5 48.9 36.9---
2024-04-15 11:24 amNNW 5.1 5.1----29.95- 50.7 49.1 37.6---
2024-04-15 11:18 amNNW 5.1 5.1----29.95- 50.7 49.3 38.1---
2024-04-15 11:12 am NW 5.1 5.1----29.95- 51.6 49.3 36.3---
2024-04-15 11:06 am NW 4.1 5.1----29.95- 53.2 49.3 34.9---
2024-04-15 11:00 am W 4.1 5.1----29.95+0.04 53.6 49.5 28.2---
2024-04-15 10:54 amWSW 1.9 2.9----29.94- 55.6 49.6 27.1---
2024-04-15 10:48 am W 1.0 2.9----29.94- 57.2 49.5 27.3---
2024-04-15 10:42 amWSW 1.0 2.9----29.94- 59.0 49.5----
2024-04-15 10:36 am E 4.1 5.1----29.93- 61.9 49.3----
2024-04-15 10:30 am E 5.1 6.0----29.93-- 48.9----
2024-04-15 10:24 am E 6.0 7.0----29.93-- 48.7----
2024-04-15 10:18 am E 6.0 8.9----29.93- 60.6 48.7----
2024-04-15 10:12 am E 8.0 8.9----29.92- 60.3 48.7----
2024-04-15 10:06 am E 7.0 8.9----29.92- 60.1 48.7----
2024-04-15 10:00 am E 7.0 8.9----29.92+0.04 59.7 48.7----
2024-04-15 09:54 am E 8.0 8.9----29.92- 59.4 48.7----
2024-04-15 09:48 am E 8.0 8.9----29.92- 58.6 48.7 23.5---
2024-04-15 09:42 am E 8.0 9.9----29.92- 58.6 48.7 23.2---
2024-04-15 09:36 am E 8.0 8.9----29.92- 58.3 48.7 23.9---
2024-04-15 09:30 am E 7.0 8.9----29.92- 57.9 48.7 24.3---
2024-04-15 09:24 am E 8.0 9.9----29.92- 57.7 48.7 24.3---
2024-04-15 09:18 am E 8.9 11.1----29.92- 57.2 48.7 25.3---
2024-04-15 09:12 am E 8.0 9.9----29.92- 56.7 48.7 26.4---
2024-04-15 09:06 am E 8.0 9.9----29.92- 56.3 48.6 25.9---
2024-04-15 09:00 am E 8.0 9.9----29.92+0.06 55.8 48.6 26.8---
2024-04-15 08:54 am E 8.0 9.9----29.92- 55.4 48.4 27.0---
2024-04-15 08:48 am E 8.0 9.9----29.92- 54.9 48.4 28.0---
2024-04-15 08:42 am E 8.0 9.9----29.92- 54.3 48.4 28.2---
2024-04-15 08:36 am E 8.0 9.9----29.91- 54.0 48.4 28.6---
2024-04-15 08:30 am E 8.0 11.1----29.91- 53.4 48.6 28.8---
2024-04-15 08:24 am E 8.9 11.1----29.91- 53.2 48.7 28.8---
2024-04-15 08:18 am E 8.0 11.1----29.91- 52.9 48.7 28.4---
2024-04-15 08:12 am E 8.9 11.1----29.91- 52.5 48.9 28.6---
2024-04-15 08:06 am E 8.0 9.9----29.91- 52.3 49.1 28.0---
2024-04-15 08:00 am E 8.0 9.9----29.91+0.06 52.0 49.3 27.9---
2024-04-15 07:54 am E 8.0 9.9----29.90- 51.8 49.6 28.2---
2024-04-15 07:48 am E 8.0 8.9----29.90- 51.6 49.8 28.2---
2024-04-15 07:42 am E 8.0 9.9----29.90- 51.4 49.8 27.9---
2024-04-15 07:36 am E 8.9 11.1----29.89- 51.4 49.8 27.7---
2024-04-15 07:30 am E 8.0 9.9----29.89- 51.3 49.8 27.5---
2024-04-15 07:24 amENE 8.0 11.1----29.89- 51.3 49.8 27.5---
2024-04-15 07:18 amENE 8.0 8.9----29.89- 51.1 49.8 28.6---
2024-04-15 07:12 am E 8.0 9.9----29.89- 51.3 50.0 28.0---
2024-04-15 07:06 amENE 8.0 8.9----29.88- 51.4 50.0 27.5---
2024-04-15 07:00 amENE 8.9 9.9----29.88+0.06 51.6 50.2 27.3---
2024-04-15 06:54 amENE 7.0 8.9----29.88- 51.3 50.2 27.7---
2024-04-15 06:48 am E 7.0 8.9----29.88- 51.3 50.4 28.4---
2024-04-15 06:42 am E 7.0 9.9----29.88- 51.6 50.2 27.7---
2024-04-15 06:36 amENE 7.0 8.9----29.88- 51.6 50.2 27.7---
2024-04-15 06:30 amENE 7.0 8.9----29.88- 51.8 50.2 27.3---
2024-04-15 06:24 amENE 7.0 8.9----29.87- 52.2 50.2 27.9---
2024-04-15 06:18 am E 6.0 8.9----29.87- 52.2 50.0 27.9---
2024-04-15 06:12 amENE 6.0 8.9----29.87- 52.2 49.8 28.0---
2024-04-15 06:06 amENE 7.0 9.9----29.86- 52.5 49.5 27.9---
2024-04-15 06:00 amENE 8.9 12.0----29.86+0.06 52.7 49.1 27.5---
2024-04-15 05:54 amENE 8.0 12.0----29.86- 53.1 49.1 27.0---
2024-04-15 05:48 amENE 8.0 11.1----29.86- 53.1 49.3 27.0---
2024-04-15 05:42 amENE 8.0 11.1----29.85- 53.2 49.6 27.0---
2024-04-15 05:36 amENE 8.0 11.1----29.85- 53.2 49.8 27.0---
2024-04-15 05:30 amENE 8.0 11.1----29.85- 53.2 50.2 27.0---
2024-04-15 05:24 amENE 8.0 11.1----29.85- 53.2 50.2 27.3---
2024-04-15 05:18 amENE 8.0 11.1----29.85- 53.4 50.4 27.5---
2024-04-15 05:12 amENE 8.0 11.1----29.85- 53.4 50.4 29.1---
2024-04-15 05:06 amENE 8.0 11.1----29.84- 53.6 50.4 29.1---
2024-04-15 05:00 amENE 9.9 13.0----29.84+0.05 54.0 50.4 28.0---
2024-04-15 04:54 amENE 9.9 13.0----29.84- 54.1 50.4 28.0---